Time,TemperatureF,DewpointF,PressureIn,WindDirection,WindDirectionDegrees,WindSpeedMPH,WindSpeedGustMPH,Humidity,HourlyPrecipIn,Conditions,Clouds,dailyrainin,SoftwareType,DateUTC
2013-01-16 00:01:00,14.2,2.1,30.19,West,270,0.0,-999.0,58,-99.99,,,0.00,Acu-Link.com,2013-01-16 07:01:00,
2013-01-16 00:16:00,13.5,2.2,30.20,West,270,2.2,-999.0,60,-99.99,,,0.00,Acu-Link.com,2013-01-16 07:16:00,
2013-01-16 00:32:00,13.5,2.6,30.20,West,270,1.1,-999.0,61,-99.99,,,0.00,Acu-Link.com,2013-01-16 07:32:00,
2013-01-16 00:47:00,14.4,2.7,30.19,West,270,1.6,-999.0,59,-99.99,,,0.00,Acu-Link.com,2013-01-16 07:47:00,
2013-01-16 01:02:00,14.5,2.5,30.19,West,270,2.7,-999.0,58,-99.99,,,0.00,Acu-Link.com,2013-01-16 08:02:00,
2013-01-16 01:17:00,14.7,2.7,30.18,North,0,2.2,-999.0,58,-99.99,,,0.00,Acu-Link.com,2013-01-16 08:17:00,
2013-01-16 01:33:00,14.7,2.3,30.19,North,0,0.0,-999.0,57,-99.99,,,0.00,Acu-Link.com,2013-01-16 08:33:00,
2013-01-16 01:48:00,13.6,2.7,30.20,West,270,1.6,-999.0,61,-99.99,,,0.00,Acu-Link.com,2013-01-16 08:48:00,
2013-01-16 02:22:00,15.4,2.6,30.20,West,270,4.3,-999.0,56,-99.99,,,0.00,Acu-Link.com,2013-01-16 09:22:00,
2013-01-16 02:37:00,14.5,1.7,30.21,West,270,2.2,-999.0,56,-99.99,,,0.00,Acu-Link.com,2013-01-16 09:37:00,
2013-01-16 02:52:00,13.8,2.2,30.20,West,270,1.6,-999.0,59,-99.99,,,0.00,Acu-Link.com,2013-01-16 09:52:00,
2013-01-16 03:08:00,13.1,2.2,30.21,West,270,1.6,-999.0,61,-99.99,,,0.00,Acu-Link.com,2013-01-16 10:08:00,
2013-01-16 03:23:00,13.1,2.6,30.20,West,270,2.7,-999.0,62,-99.99,,,0.00,Acu-Link.com,2013-01-16 10:23:00,
2013-01-16 03:38:00,12.7,2.6,30.21,West,270,1.6,-999.0,63,-99.99,,,0.00,Acu-Link.com,2013-01-16 10:38:00,
2013-01-16 03:53:00,12.0,2.2,30.20,East,90,1.6,-999.0,64,-99.99,,,0.00,Acu-Link.com,2013-01-16 10:53:00,
2013-01-16 04:08:00,10.9,1.5,30.20,East,90,0.0,-999.0,65,-99.99,,,0.00,Acu-Link.com,2013-01-16 11:08:00,
2013-01-16 04:24:00,10.6,2.5,30.20,East,90,0.0,-999.0,69,-99.99,,,0.00,Acu-Link.com,2013-01-16 11:24:00,
2013-01-16 04:39:00,10.0,2.5,30.20,East,90,0.0,-999.0,71,-99.99,,,0.00,Acu-Link.com,2013-01-16 11:39:00,
2013-01-16 04:54:00,10.0,2.5,30.19,East,90,2.2,-999.0,71,-99.99,,,0.00,Acu-Link.com,2013-01-16 11:54:00,
2013-01-16 05:09:00,10.2,2.4,30.19,SSE,157,0.0,-999.0,70,-99.99,,,0.00,Acu-Link.com,2013-01-16 12:09:00,
2013-01-16 05:24:00,10.6,2.5,30.20,West,270,0.0,-999.0,69,-99.99,,,0.00,Acu-Link.com,2013-01-16 12:24:00,
2013-01-16 05:40:00,10.0,2.8,30.20,SSE,157,1.1,-999.0,72,-99.99,,,0.00,Acu-Link.com,2013-01-16 12:40:00,
2013-01-16 05:55:00,10.4,4.4,30.21,ESE,112,2.7,-999.0,76,-99.99,,,0.00,Acu-Link.com,2013-01-16 12:55:00,
2013-01-16 06:10:00,9.9,3.8,30.21,ENE,67,0.0,-999.0,76,-99.99,,,0.00,Acu-Link.com,2013-01-16 13:10:00,
2013-01-16 06:25:00,9.5,3.8,30.21,NW,315,3.8,-999.0,77,-99.99,,,0.00,Acu-Link.com,2013-01-16 13:25:00,
2013-01-16 06:40:00,9.5,2.9,30.21,WNW,292,4.3,-999.0,74,-99.99,,,0.00,Acu-Link.com,2013-01-16 13:40:00,
2013-01-16 06:56:00,9.3,2.7,30.21,ESE,112,3.1,-999.0,74,-99.99,,,0.00,Acu-Link.com,2013-01-16 13:56:00,
2013-01-16 07:11:00,8.4,2.7,30.22,East,90,2.2,-999.0,77,-99.99,,,0.00,Acu-Link.com,2013-01-16 14:11:00,
2013-01-16 07:26:00,8.1,2.6,30.24,ESE,112,2.7,-999.0,78,-99.99,,,0.00,Acu-Link.com,2013-01-16 14:26:00,
2013-01-16 07:41:00,8.6,2.9,30.24,ENE,67,2.7,-999.0,77,-99.99,,,0.00,Acu-Link.com,2013-01-16 14:41:00,
2013-01-16 07:57:00,9.9,4.9,30.24,ENE,67,1.6,-999.0,80,-99.99,,,0.00,Acu-Link.com,2013-01-16 14:57:00,
2013-01-16 08:12:00,11.5,4.2,30.25,NE,45,2.2,-999.0,72,-99.99,,,0.00,Acu-Link.com,2013-01-16 15:12:00,
2013-01-16 08:27:00,12.9,5.0,30.27,ENE,67,3.1,-999.0,70,-99.99,,,0.00,Acu-Link.com,2013-01-16 15:27:00,
2013-01-16 08:42:00,15.8,4.8,30.27,NNW,337,0.0,-999.0,61,-99.99,,,0.00,Acu-Link.com,2013-01-16 15:42:00,
2013-01-16 08:57:00,17.6,6.8,30.27,West,270,1.1,-999.0,62,-99.99,,,0.00,Acu-Link.com,2013-01-16 15:57:00,
2013-01-16 09:13:00,19.2,4.1,30.28,NE,45,1.1,-999.0,51,-99.99,,,0.00,Acu-Link.com,2013-01-16 16:13:00,
2013-01-16 09:28:00,20.7,4.6,30.28,East,90,1.6,-999.0,49,-99.99,,,0.00,Acu-Link.com,2013-01-16 16:28:00,
2013-01-16 09:43:00,21.9,8.3,30.28,ENE,67,0.0,-999.0,55,-99.99,,,0.00,Acu-Link.com,2013-01-16 16:43:00,
2013-01-16 09:58:00,23.2,6.9,30.28,WSW,247,2.2,-999.0,49,-99.99,,,0.00,Acu-Link.com,2013-01-16 16:58:00,
2013-01-16 10:13:00,26.2,5.8,30.27,SSE,157,1.6,-999.0,41,-99.99,,,0.00,Acu-Link.com,2013-01-16 17:13:00,
2013-01-16 10:29:00,27.0,5.9,30.27,ENE,67,1.1,-999.0,40,-99.99,,,0.00,Acu-Link.com,2013-01-16 17:29:00,
2013-01-16 10:44:00,27.7,6.5,30.26,East,90,2.7,-999.0,40,-99.99,,,0.00,Acu-Link.com,2013-01-16 17:44:00,
2013-01-16 10:59:00,27.9,5.6,30.25,SSW,202,1.1,-999.0,38,-99.99,,,0.00,Acu-Link.com,2013-01-16 17:59:00,
2013-01-16 11:14:00,28.9,6.6,30.24,ESE,112,2.2,-999.0,38,-99.99,,,0.00,Acu-Link.com,2013-01-16 18:14:00,
2013-01-16 11:29:00,30.6,8.6,30.23,NNW,337,1.1,-999.0,39,-99.99,,,0.00,Acu-Link.com,2013-01-16 18:29:00,
2013-01-16 11:45:00,32.5,8.6,30.22,SE,135,2.7,-999.0,36,-99.99,,,0.00,Acu-Link.com,2013-01-16 18:45:00,
2013-01-16 12:00:00,33.6,8.3,30.21,SW,225,1.1,-999.0,34,-99.99,,,0.00,Acu-Link.com,2013-01-16 19:00:00,
2013-01-16 12:15:00,34.2,8.1,30.20,South,180,2.7,-999.0,33,-99.99,,,0.00,Acu-Link.com,2013-01-16 19:15:00,
2013-01-16 12:30:00,34.2,8.8,30.20,South,180,5.1,-999.0,34,-99.99,,,0.00,Acu-Link.com,2013-01-16 19:30:00,
2013-01-16 12:46:00,35.2,9.7,30.18,SE,135,3.8,-999.0,34,-99.99,,,0.00,Acu-Link.com,2013-01-16 19:46:00,
2013-01-16 13:01:00,35.6,10.0,30.18,WNW,292,2.7,-999.0,34,-99.99,,,0.00,Acu-Link.com,2013-01-16 20:01:00,
2013-01-16 13:16:00,37.8,10.6,30.17,ESE,112,4.3,-999.0,32,-99.99,,,0.00,Acu-Link.com,2013-01-16 20:16:00,
2013-01-16 13:31:00,37.2,10.8,30.16,NE,45,5.1,-999.0,33,-99.99,,,0.00,Acu-Link.com,2013-01-16 20:31:00,
2013-01-16 13:46:00,36.5,10.8,30.16,West,270,2.2,-999.0,34,-99.99,,,0.00,Acu-Link.com,2013-01-16 20:46:00,
2013-01-16 14:02:00,37.0,11.3,30.15,NNE,22,2.2,-999.0,34,-99.99,,,0.00,Acu-Link.com,2013-01-16 21:02:00,
2013-01-16 14:17:00,37.8,11.9,30.14,NW,315,4.7,-999.0,34,-99.99,,,0.00,Acu-Link.com,2013-01-16 21:17:00,
2013-01-16 14:32:00,37.9,12.1,30.14,WNW,292,1.1,-999.0,34,-99.99,,,0.00,Acu-Link.com,2013-01-16 21:32:00,
2013-01-16 14:47:00,38.3,11.7,30.14,WNW,292,4.3,-999.0,33,-99.99,,,0.00,Acu-Link.com,2013-01-16 21:47:00,
2013-01-16 15:02:00,39.2,13.2,30.14,SSE,157,5.1,-999.0,34,-99.99,,,0.00,Acu-Link.com,2013-01-16 22:02:00,
2013-01-16 15:18:00,38.7,12.1,30.14,East,90,2.2,-999.0,33,-99.99,,,0.00,Acu-Link.com,2013-01-16 22:18:00,
2013-01-16 15:33:00,38.7,13.4,30.15,ESE,112,2.2,-999.0,35,-99.99,,,0.00,Acu-Link.com,2013-01-16 22:33:00,
2013-01-16 15:48:00,39.6,14.2,30.15,SE,135,4.3,-999.0,35,-99.99,,,0.00,Acu-Link.com,2013-01-16 22:48:00,
2013-01-16 16:03:00,39.2,13.9,30.14,ENE,67,2.7,-999.0,35,-99.99,,,0.00,Acu-Link.com,2013-01-16 23:03:00,
2013-01-16 16:18:00,40.3,15.5,30.15,East,90,2.2,-999.0,36,-99.99,,,0.00,Acu-Link.com,2013-01-16 23:18:00,
2013-01-16 16:34:00,40.1,15.3,30.15,NNE,22,1.1,-999.0,36,-99.99,,,0.00,Acu-Link.com,2013-01-16 23:34:00,
2013-01-16 16:49:00,39.6,15.5,30.16,NW,315,5.1,-999.0,37,-99.99,,,0.00,Acu-Link.com,2013-01-16 23:49:00,
2013-01-16 17:04:00,38.1,14.8,30.16,NNE,22,6.3,-999.0,38,-99.99,,,0.00,Acu-Link.com,2013-01-17 00:04:00,
2013-01-16 17:19:00,36.5,15.1,30.17,NNW,337,6.3,-999.0,41,-99.99,,,0.00,Acu-Link.com,2013-01-17 00:19:00,
2013-01-16 17:35:00,35.6,14.3,30.18,North,0,6.3,-999.0,41,-99.99,,,0.00,Acu-Link.com,2013-01-17 00:35:00,
2013-01-16 17:50:00,34.9,14.7,30.18,North,0,5.8,-999.0,43,-99.99,,,0.00,Acu-Link.com,2013-01-17 00:50:00,
2013-01-16 18:05:00,34.0,14.4,30.19,NW,315,2.7,-999.0,44,-99.99,,,0.00,Acu-Link.com,2013-01-17 01:05:00,
2013-01-16 18:20:00,33.4,14.4,30.20,NNE,22,5.8,-999.0,45,-99.99,,,0.00,Acu-Link.com,2013-01-17 01:20:00,
2013-01-16 18:35:00,33.1,14.6,30.20,ENE,67,5.8,-999.0,46,-99.99,,,0.00,Acu-Link.com,2013-01-17 01:35:00,
2013-01-16 18:51:00,32.4,14.4,30.21,NNE,22,2.7,-999.0,47,-99.99,,,0.00,Acu-Link.com,2013-01-17 01:51:00,
2013-01-16 19:06:00,31.6,15.2,30.21,WNW,292,1.1,-999.0,50,-99.99,,,0.00,Acu-Link.com,2013-01-17 02:06:00,
2013-01-16 19:21:00,30.7,16.5,30.22,ENE,67,2.7,-999.0,55,-99.99,,,0.00,Acu-Link.com,2013-01-17 02:21:00,
2013-01-16 19:36:00,29.8,13.9,30.22,North,0,1.6,-999.0,51,-99.99,,,0.00,Acu-Link.com,2013-01-17 02:36:00,
2013-01-16 19:51:00,29.8,13.9,30.23,NW,315,5.1,-999.0,51,-99.99,,,0.00,Acu-Link.com,2013-01-17 02:51:00,
2013-01-16 20:07:00,29.5,13.6,30.23,North,0,4.3,-999.0,51,-99.99,,,0.00,Acu-Link.com,2013-01-17 03:07:00,
2013-01-16 20:22:00,28.4,13.0,30.23,NNW,337,2.7,-999.0,52,-99.99,,,0.00,Acu-Link.com,2013-01-17 03:22:00,
2013-01-16 20:37:00,27.7,12.8,30.24,WNW,292,3.8,-999.0,53,-99.99,,,0.00,Acu-Link.com,2013-01-17 03:37:00,
2013-01-16 20:52:00,27.1,12.3,30.24,NW,315,2.2,-999.0,53,-99.99,,,0.00,Acu-Link.com,2013-01-17 03:52:00,
2013-01-16 21:08:00,26.6,12.2,30.25,North,0,2.7,-999.0,54,-99.99,,,0.00,Acu-Link.com,2013-01-17 04:08:00,
2013-01-16 21:23:00,25.9,12.4,30.25,NNW,337,4.3,-999.0,56,-99.99,,,0.00,Acu-Link.com,2013-01-17 04:23:00,
2013-01-16 21:38:00,25.9,12.4,30.25,North,0,2.2,-999.0,56,-99.99,,,0.00,Acu-Link.com,2013-01-17 04:38:00,
2013-01-16 21:53:00,25.3,11.9,30.25,NW,315,2.2,-999.0,56,-99.99,,,0.00,Acu-Link.com,2013-01-17 04:53:00,
2013-01-16 22:08:00,24.8,11.8,30.25,West,270,3.1,-999.0,57,-99.99,,,0.00,Acu-Link.com,2013-01-17 05:08:00,
2013-01-16 22:24:00,24.6,11.6,30.26,NNW,337,1.6,-999.0,57,-99.99,,,0.00,Acu-Link.com,2013-01-17 05:24:00,
2013-01-16 22:39:00,23.9,11.7,30.26,NW,315,2.7,-999.0,59,-99.99,,,0.00,Acu-Link.com,2013-01-17 05:39:00,
2013-01-16 22:54:00,23.2,11.4,30.27,NW,315,2.7,-999.0,60,-99.99,,,0.00,Acu-Link.com,2013-01-17 05:54:00,
2013-01-16 23:09:00,23.0,11.9,30.27,NNW,337,2.7,-999.0,62,-99.99,,,0.00,Acu-Link.com,2013-01-17 06:09:00,
2013-01-16 23:24:00,22.6,11.6,30.27,NNE,22,1.6,-999.0,62,-99.99,,,0.00,Acu-Link.com,2013-01-17 06:24:00,
2013-01-16 23:40:00,22.6,11.6,30.28,NNE,22,3.1,-999.0,62,-99.99,,,0.00,Acu-Link.com,2013-01-17 06:40:00,
2013-01-16 23:55:00,23.2,11.8,30.28,NNE,22,4.3,-999.0,61,-99.99,,,0.00,Acu-Link.com,2013-01-17 06:55:00,